Location: Neuvy Saint Sepulchre
(46.5953°N, 1.8122°E)
Time: 18:02:30
(UTC+02:00)

ISS - Pass Details

Date: 31 March 2019
Orbit: 408 x 410 km, 51.6° (Epoch: 22 April)

Event Time Altitude Azimuth Distance (km) Brightness Sun altitude
Rises 20:58:22 0° 284° (WNW) 2,338 2.8 -7.3°
Reaches altitude 10° 21:00:35 10° 294° (WNW) 1,476 0.7 -7.7°
Maximum altitude 21:03:37 32° 0° (N) 726 -2.4 -8.2°
Drops below altitude 10° 21:06:39 10° 67° (ENE) 1,474 -1.4 -8.7°
Enters shadow 21:07:04 - 69° (ENE) 1,635 -1.2 -8.8°
